Location: Avoca
(45.7167°N, 74.7000°W)
Time: 16:45:29
(UTC+00:00)

BlueWalker 3 - Pass Details

Date: 06 December 2022
Orbit: 499 x 517 km, 53.2° (Epoch: 01 February)

Event Time Altitude Azimuth Distance (km) Brightness Sun altitude
Rises 22:47:34 0° 300° (WNW) 2,630 6.3 -15.5°
Reaches altitude 10° 22:49:54 10° 309° (NW) 1,738 5.1 -15.9°
Maximum altitude 22:53:36 39° 19° (NNE) 779 2.6 -16.6°
Enters shadow 22:54:27 34° 51° (NE) 854 2.6 -16.7°
